Date,TemperatureHighF,TemperatureAvgF,TemperatureLowF,DewpointHighF,DewpointAvgF,DewpointLowF,HumidityHigh,HumidityAvg,HumidityLow,PressureMaxIn,PressureMinIn,WindSpeedMaxMPH,WindSpeedAvgMPH,GustSpeedMaxMPH,PrecipitationSumIn
2013-1-30,45.0,43.4,41.0,37.0,35.3,32.0,82,73,61,29.63,29.33,13,4,14,0.25
2013-1-31,45.0,42.1,37.0,40.0,37.8,35.0,96,85,79,29.63,29.27,10,4,13,0.62
2013-2-1,43.0,39.9,35.0,39.0,34.8,27.0,88,82,72,29.78,29.33,11,2,13,0.19
2013-2-2,39.0,35.4,32.0,31.0,28.1,26.0,83,75,65,30.13,29.78,4,1,6,0.02
2013-2-3,49.0,44.9,36.0,45.0,40.4,31.0,92,84,73,29.98,29.51,17,5,17,0.09
2013-2-4,49.0,39.1,34.0,46.0,33.9,29.0,89,81,73,29.57,29.33,11,4,17,0.28
2013-2-5,43.0,37.9,33.0,39.0,33.9,28.0,93,85,74,29.57,29.06,14,3,14,0.15
2013-2-6,42.0,38.1,34.0,33.0,26.4,23.0,73,62,53,30.10,29.57,7,2,10,0.04
2013-2-7,40.0,37.1,34.0,33.0,30.1,25.0,83,76,70,30.07,29.96,3,0,5,0.00
2013-2-8,44.0,39.2,35.0,39.0,33.6,31.0,96,81,68,30.13,30.01,3,1,5,0.12
2013-2-9,41.0,39.5,38.0,39.0,37.7,36.0,96,93,91,30.04,29.75,2,0,3,0.17
2013-2-10,39.0,36.8,35.0,37.0,34.5,33.0,92,91,90,29.75,29.36,3,1,6,0.36
2013-2-11,40.0,37.3,34.0,36.0,33.2,29.0,90,85,77,29.87,29.42,9,2,9,0.03
2013-2-12,38.0,35.2,33.0,32.0,30.1,28.0,87,82,78,30.04,29.87,5,1,6,0.00
2013-2-13,47.0,36.6,33.0,44.0,32.9,27.0,94,86,75,30.01,29.51,13,4,15,0.33
2013-2-14,47.0,44.9,43.0,43.0,40.7,39.0,88,85,82,29.78,29.51,8,3,9,0.07
2013-2-15,47.0,43.2,38.0,40.0,37.8,34.0,86,81,68,30.04,29.78,8,2,10,0.04
2013-2-16,48.0,43.2,38.0,43.0,39.1,34.0,88,86,82,30.04,30.01,5,1,6,0.00
2013-2-17,47.0,43.4,35.0,42.0,37.0,30.0,86,79,66,30.04,29.98,10,1,10,0.00
2013-2-18,44.0,35.6,29.0,35.0,29.8,25.0,86,80,70,30.07,29.98,3,0,4,0.00
2013-2-19,43.0,34.9,27.0,36.0,29.4,23.0,85,80,72,30.07,30.01,4,0,4,0.00
2013-2-20,42.0,37.1,31.0,36.0,31.8,25.0,87,81,75,30.25,30.07,7,1,9,0.00
2013-2-21,37.0,32.4,26.0,28.0,24.0,21.0,82,71,61,30.25,30.19,7,1,7,0.00
2013-2-22,37.0,34.5,33.0,26.0,22.6,20.0,68,61,59,30.25,30.16,6,0,6,0.00
2013-2-23,39.0,35.2,33.0,28.0,26.1,24.0,75,69,58,30.31,30.16,2,0,4,0.00
2013-2-24,40.0,35.8,32.0,37.0,31.3,27.0,91,84,75,30.43,30.28,1,0,3,0.00
2013-2-25,42.0,35.9,31.0,37.0,32.0,28.0,92,86,74,30.55,30.43,2,0,3,0.03
2013-2-26,45.0,38.7,34.0,37.0,33.8,30.0,90,83,73,30.61,30.49,1,1,1,0.03
2013-2-27,47.0,36.8,31.0,40.0,32.7,28.0,90,85,76,30.61,30.52,1,0,1,0.00
2013-2-28,46.0,38.5,30.0,41.0,34.4,26.0,89,85,82,30.52,30.46,2,0,6,0.00
2013-3-1,48.0,42.5,35.0,40.0,35.7,29.0,88,77,61,30.52,30.37,3,0,4,0.00
2013-3-2,51.0,43.5,33.0,42.0,36.7,27.0,87,77,68,30.37,30.19,4,1,6,0.00
2013-3-3,48.0,45.5,43.0,41.0,37.7,34.0,85,74,63,30.19,30.04,6,1,6,0.00
2013-3-4,46.0,41.3,37.0,35.0,32.7,29.0,78,72,63,30.04,29.72,3,0,5,0.00
2013-3-5,47.0,39.0,32.0,36.0,30.8,27.0,81,72,62,29.72,29.60,0,0,0,0.00
2013-3-6,42.0,39.4,37.0,37.0,33.4,29.0,94,79,74,29.69,29.60,4,2,6,0.00
2013-3-7,45.0,41.5,39.0,43.0,39.6,37.0,96,93,90,29.60,29.51,5,2,7,0.17
2013-3-8,41.0,40.2,39.0,38.0,37.1,36.0,91,89,87,29.66,29.48,9,2,11,0.04
2013-3-9,40.0,38.4,37.0,37.0,34.8,30.0,91,87,76,29.84,29.66,8,3,8,0.04
2013-3-10,37.0,34.0,28.0,34.0,29.2,25.0,93,83,66,30.04,29.81,8,2,8,0.09
2013-3-11,33.0,29.2,25.0,29.0,25.2,21.0,93,85,74,30.10,30.01,5,1,9,0.03
2013-3-12,42.0,31.6,20.0,34.0,25.4,15.0,85,78,63,30.07,29.87,3,0,5,0.04
2013-3-13,43.0,36.8,32.0,30.0,25.9,21.0,80,65,50,29.96,29.81,4,1,4,0.04
2013-3-14,44.0,36.9,28.0,38.0,30.5,20.0,85,77,65,29.93,29.57,7,2,8,0.00
2013-3-15,45.0,41.0,37.0,42.0,37.9,34.0,95,89,83,29.57,29.33,8,2,8,0.11
2013-3-16,38.0,35.9,34.0,36.0,33.6,31.0,95,92,89,29.33,29.21,3,0,4,0.20
2013-3-17,41.0,37.0,33.0,39.0,35.0,31.0,95,92,90,29.24,29.09,6,1,10,0.07
2013-3-18,39.0,37.0,34.0,37.0,34.3,31.0,92,90,88,29.51,29.21,6,2,8,0.09
2013-3-19,37.0,35.3,34.0,35.0,32.7,31.0,91,90,89,29.60,29.45,6,2,6,0.07
2013-3-20,40.0,36.8,33.0,36.0,33.3,29.0,91,87,80,29.98,29.60,6,1,8,0.03
2013-3-21,38.0,34.0,29.0,30.0,26.9,25.0,87,75,63,30.04,29.90,11,2,15,0.00
2013-3-22,36.0,35.0,33.0,33.0,28.9,25.0,94,79,63,29.93,29.84,16,4,16,0.00
2013-3-23,34.0,33.7,33.0,32.0,30.5,30.0,94,88,86,30.01,29.90,10,4,11,0.00
2013-3-24,34.0,34.0,34.0,30.0,30.0,30.0,86,86,86,30.01,30.01,4,4,4,0.00
2013-3-25,34.0,34.0,34.0,30.0,30.0,30.0,86,86,86,30.01,30.01,4,4,4,0.00
2013-3-26,37.0,34.8,30.0,25.0,21.0,18.0,62,57,53,29.88,29.85,5,-151,9,0.00
2013-3-27,38.0,33.2,29.0,32.0,26.8,18.0,95,78,62,29.85,29.77,4,-201,5,0.00
2013-3-28,39.0,35.0,32.0,32.0,27.4,21.0,96,75,54,29.83,29.73,6,-471,8,0.00
2013-3-29,41.0,35.1,29.0,29.0,24.7,21.0,77,66,53,29.74,29.62,3,-90,8,0.00
2013-3-30,40.0,35.1,29.0,28.0,23.7,21.0,76,63,54,29.71,29.62,3,-250,4,0.00
2013-3-31,41.0,35.3,28.0,24.0,20.7,-99.9,70,58,49,29.74,29.65,6,-513,11,0.00
2013-4-1,43.0,35.6,30.0,25.0,20.8,18.0,62,55,49,29.77,29.65,4,-82,10,0.00
2013-4-2,44.0,35.2,29.0,28.0,22.2,18.0,66,59,52,29.91,29.74,3,-378,6,0.00
2013-4-3,48.0,36.4,26.0,29.0,24.0,18.0,73,61,48,30.03,29.91,3,0,5,0.00
2013-4-4,47.0,39.8,33.0,30.0,25.1,21.0,70,56,43,30.00,29.91,4,1,7,0.00
2013-4-5,49.0,40.5,36.0,31.0,26.2,20.0,72,57,47,29.97,29.88,3,1,6,0.00
2013-4-6,48.0,38.6,28.0,31.0,24.6,17.0,66,57,48,30.00,29.88,4,1,8,0.00
2013-4-7,48.0,40.3,33.0,33.0,28.8,24.0,73,63,53,29.88,29.68,2,0,5,0.00
2013-4-8,44.0,38.9,36.0,30.0,27.4,26.0,73,64,48,29.68,29.47,4,1,7,0.00
2013-4-9,46.0,40.9,35.0,27.0,22.7,-99.9,65,51,46,29.44,29.38,5,2,9,0.00
2013-4-10,46.0,39.9,34.0,32.0,29.3,25.0,72,66,55,29.41,29.29,3,-70,6,0.00
2013-4-11,45.0,40.1,37.0,42.0,36.9,30.0,97,89,69,29.29,29.12,3,-180,6,0.03
2013-4-12,47.0,40.8,37.0,42.0,37.9,34.0,95,90,81,29.35,29.08,1,0,5,0.03
2013-4-13,54.0,46.0,40.0,47.0,39.1,35.0,93,79,50,29.50,29.15,8,2,14,0.03
2013-4-14,56.0,52.0,48.0,50.0,47.7,44.0,93,85,73,29.21,29.09,11,6,17,0.57
2013-4-15,55.0,49.8,47.0,48.0,40.4,-99.9,86,74,59,29.47,29.21,8,4,14,0.04
2013-4-16,52.0,48.7,45.0,45.0,39.4,32.0,89,71,49,29.56,29.09,10,6,17,0.11
2013-4-17,50.0,45.0,41.0,48.0,40.3,33.0,97,84,66,29.56,28.85,8,3,17,1.00
2013-4-18,52.0,47.7,44.0,45.0,40.7,37.0,91,77,60,29.62,28.85,10,4,19,0.21
2013-4-19,56.0,46.2,38.0,40.0,34.1,30.0,80,64,48,30.12,29.62,3,1,6,0.03
2013-4-20,57.0,48.5,41.0,39.0,34.9,32.0,77,60,47,30.12,29.83,8,-4,13,0.00
2013-4-21,52.0,46.6,43.0,44.0,39.9,36.0,93,78,62,29.83,29.56,6,3,9,0.08
2013-4-22,54.0,47.4,42.0,48.0,40.0,36.0,85,76,56,29.56,29.35,9,3,17,0.04
2013-4-23,54.0,49.0,46.0,41.0,38.1,34.0,82,67,52,29.77,29.44,9,3,12,0.00
2013-4-24,54.0,47.8,45.0,50.0,38.0,-99.9,97,73,47,29.91,29.59,6,1,12,0.28
2013-4-25,51.0,43.2,41.0,39.0,34.3,30.0,81,71,56,29.91,29.75,4,1,7,0.07
2013-4-26,50.0,42.9,38.0,38.0,33.2,31.0,81,69,53,29.75,29.56,6,2,8,0.08
2013-4-27,61.0,45.1,37.0,41.0,29.8,25.0,75,56,41,29.88,29.67,5,1,12,0.04
2013-4-28,49.0,44.0,39.0,41.0,35.9,27.0,88,73,53,29.67,29.35,7,4,12,0.13
2013-4-29,57.0,45.6,40.0,39.0,33.9,31.0,82,65,47,29.80,29.32,7,2,12,0.03
2013-4-30,62.0,46.5,37.0,36.0,30.1,25.0,74,55,27,30.03,29.79,4,1,7,0.00
2013-5-1,56.0,36.5,42.0,43.0,2.8,-99.9,85,45,37,29.94,29.80,7,2,10,0.00
2013-5-2,61.0,45.3,34.0,46.0,31.5,-99.9,97,62,45,29.96,29.71,6,-47,10,0.00
2013-5-3,51.0,47.7,41.0,50.0,46.2,38.0,97,95,93,29.71,29.41,8,-80,12,0.46
2013-5-4,50.0,44.9,37.0,44.0,38.1,-99.9,95,80,67,29.59,29.44,7,3,12,0.21
2013-5-5,66.0,55.5,48.0,53.0,46.7,41.0,80,72,61,29.74,29.59,9,3,13,0.00
2013-5-6,65.0,51.2,49.0,55.0,40.2,-99.9,82,74,67,29.77,29.67,5,2,8,0.00
2013-5-7,80.0,56.5,42.0,52.0,41.5,-99.9,78,61,36,29.80,29.56,6,1,9,0.00
2013-5-8,59.0,54.2,48.0,51.0,42.9,35.0,81,66,49,29.56,29.21,9,2,17,0.00
2013-5-9,53.0,47.4,45.0,44.0,36.3,-99.9,94,69,57,29.26,29.06,6,2,12,0.03
2013-5-10,54.0,46.8,44.0,48.0,38.4,-99.9,96,80,59,29.35,29.12,5,-6,9,0.07
2013-5-11,48.0,44.8,43.0,46.0,42.0,-99.9,97,92,84,29.47,29.21,7,3,12,0.20
2013-5-12,49.0,45.8,42.0,47.0,42.1,-99.9,93,89,77,29.50,29.32,6,3,10,0.03
2013-5-13,44.0,40.9,38.0,42.0,38.1,35.0,95,90,82,29.35,29.17,7,4,20,0.50
2013-5-14,51.0,44.0,40.0,42.0,39.4,35.0,94,84,63,29.18,29.09,7,3,12,0.17
2013-5-15,56.0,46.6,37.0,44.0,36.0,32.0,86,68,48,29.15,29.06,3,-22,8,0.04
2013-5-16,57.0,44.9,38.0,40.0,21.6,-99.9,81,63,47,29.40,29.12,3,-291,6,0.04
2013-5-17,60.0,51.8,42.0,45.0,33.7,-99.9,80,57,39,29.59,29.38,2,-172,3,0.04
2013-5-18,55.0,46.8,47.0,53.0,36.2,-99.9,97,81,50,29.56,29.44,3,-152,6,0.54
2013-5-19,58.0,51.7,49.0,55.0,47.8,-99.9,93,90,89,29.71,29.53,2,0,5,0.25
2013-5-20,70.0,60.2,54.0,61.0,54.5,51.0,92,83,66,29.77,29.65,4,0,7,0.00
2013-5-21,62.0,56.6,51.0,53.0,44.2,39.0,81,64,47,29.83,29.73,5,-20,7,0.00
2013-5-22,53.0,48.9,45.0,40.0,33.7,-99.9,75,58,47,29.83,29.73,4,1,10,0.00
2013-5-23,49.0,44.8,41.0,35.0,30.2,-99.9,69,58,47,29.74,29.65,4,1,6,0.00
2013-5-24,45.0,44.0,43.0,28.0,27.3,26.0,54,51,49,29.65,29.62,2,1,5,0.00
2013-5-27,58.0,39.8,48.0,57.0,15.8,-99.9,95,73,94,29.23,29.17,6,2,10,0.07
2013-5-28,57.0,49.8,45.0,52.0,45.3,-99.9,97,88,69,29.50,29.23,3,0,8,0.04
2013-5-29,64.0,54.4,42.0,58.0,50.3,41.0,97,87,72,29.65,29.50,3,0,4,0.04
2013-5-30,85.0,62.7,53.0,70.0,51.4,45.0,78,67,47,29.80,29.62,2,0,6,0.00
2013-5-31,61.0,55.8,49.0,49.0,43.1,35.0,73,63,49,29.91,29.80,6,-89,8,0.00
2013-6-1,61.0,51.3,44.0,52.0,38.8,34.0,86,63,46,30.00,29.88,6,2,9,0.00
2013-6-2,75.0,53.8,45.0,50.0,38.2,34.0,72,56,41,30.12,30.00,3,1,6,0.00
2013-6-3,68.0,58.8,51.0,53.0,46.4,-99.9,76,65,55,30.18,30.12,2,-70,3,0.00
2013-6-4,69.0,62.2,53.0,51.0,46.6,42.0,78,58,44,30.21,30.03,3,-14,5,0.00
2013-6-5,70.0,53.2,55.0,52.0,28.6,-99.9,70,53,48,30.03,29.88,2,0,4,0.00
2013-6-6,69.0,42.3,52.0,51.0,-1.1,-99.9,75,38,44,29.94,29.88,2,0,3,0.00
2013-6-7,65.0,57.2,49.0,49.0,40.9,-99.9,73,59,53,30.06,29.94,2,0,4,0.00
2013-6-8,71.0,59.7,49.0,48.0,44.3,41.0,76,58,43,30.03,29.83,2,0,4,0.00
2013-6-9,73.0,58.5,51.0,53.0,46.2,41.0,77,64,48,29.85,29.70,2,0,3,0.00
2013-6-10,64.0,56.8,52.0,51.0,46.7,42.0,74,69,62,29.74,29.62,1,0,5,0.00
2013-6-11,62.0,55.1,50.0,56.0,49.4,43.0,96,82,55,29.62,29.41,5,1,8,0.08
2013-6-12,62.0,55.6,53.0,56.0,51.2,-99.9,95,88,70,29.41,29.32,5,-9,7,0.09
2013-6-13,59.0,40.9,53.0,43.0,1.9,-99.9,68,40,46,29.50,29.41,7,2,12,0.00
2013-6-14,65.0,43.5,51.0,49.0,6.5,-99.9,93,44,49,29.56,29.31,8,2,11,0.00
2013-6-15,55.0,50.9,47.0,50.0,46.4,-99.9,97,86,72,29.32,29.12,7,3,11,0.11
2013-6-16,65.0,57.0,49.0,52.0,47.8,46.0,89,72,55,29.68,29.29,3,0,6,0.04
2013-6-17,68.0,60.1,51.0,53.0,48.7,44.0,78,67,50,29.80,29.67,2,0,4,0.00
2013-6-18,70.0,63.2,58.0,52.0,49.2,46.0,77,61,45,29.74,29.65,3,0,6,0.00
2013-6-19,70.0,59.3,53.0,48.0,44.0,40.0,73,58,44,29.77,29.67,4,1,8,0.00
2013-7-19,-200.0,0.0,200.0,-99.9,-99.9,-99.9,0,0,100,30.12,30.06,2,0,2,0.00
2013-7-21,-200.0,0.0,200.0,-99.9,-99.9,-99.9,0,0,100,30.00,29.94,2,1,3,0.00
2013-7-22,-200.0,0.0,200.0,-99.9,-99.9,-99.9,0,0,100,29.85,29.71,1,0,3,0.00
2013-7-23,-200.0,0.0,200.0,-99.9,-99.9,-99.9,0,0,100,29.68,29.62,2,0,3,0.26
2013-7-24,-200.0,0.0,200.0,-99.9,-99.9,-99.9,0,0,100,29.65,29.62,2,1,4,0.00
2013-8-25,-200.0,0.0,200.0,-99.9,-99.9,-99.9,0,0,100,29.71,29.71,0,0,0,0.00
2013-8-30,-200.0,0.0,200.0,-99.9,-99.9,-99.9,0,0,100,29.65,29.59,4,3,7,0.00
2013-8-31,-200.0,0.0,200.0,-99.9,-99.9,-99.9,0,0,100,30.00,29.89,2,1,3,0.00
2013-9-1,-200.0,0.0,200.0,-99.9,-99.9,-99.9,0,0,100,29.94,29.91,3,1,4,0.00
2013-9-2,-200.0,0.0,200.0,-99.9,-99.9,-99.9,0,0,100,29.89,29.85,6,3,10,0.00
2013-9-3,-200.0,0.0,200.0,-99.9,-99.9,-99.9,0,0,100,29.94,29.94,4,3,6,0.00
2013-9-4,-200.0,0.0,200.0,-99.9,-99.9,-99.9,0,0,100,29.88,29.67,5,3,6,0.00
2013-9-5,-200.0,0.0,200.0,-99.9,-99.9,-99.9,0,0,100,29.65,29.65,0,0,2,0.00
2013-9-6,-200.0,0.0,200.0,-99.9,-99.9,-99.9,0,0,100,29.62,29.59,2,0,3,0.00
2013-9-8,-200.0,0.0,200.0,-99.9,-99.9,-99.9,0,0,100,29.65,29.62,3,2,4,0.00
2013-9-9,-200.0,0.0,200.0,-99.9,-99.9,-99.9,0,0,100,29.85,29.73,0,0,0,0.00